Regional Weather Roundup
Issued by NWS Kansas City/Pleasant Hill, MO

Home | Current Version | Previous Version | Text Only | Print | Product List | Glossary On
Versions: 1 2 3 4 5 6 7 8 9 10 11 12 13 14 15 16 17 18 19 20 21 22 23 24 25 26 27
000
ASUS43 KEAX 200210
RWREAX

WEATHER ROUNDUP FOR EASTERN KANSAS AND NORTHWEST MISSOURI
NATIONAL WEATHER SERVICE KANSAS CITY/PLEASANT HILL MO
900 PM CDT TUE SEP 19 2017

KSZ040-057-103>105-MOZ028-029-037-043-200300-
...KANSAS CITY METROPOLITAN AREA...

CITY           SKY/WX    TMP DP  RH WIND       PRES   REMARKS
K.C. INTL      PTCLDY    79  69  71 S16       29.72R
K.C. DOWNTOWN  CLEAR     83  70  64 SE14G22   29.70S
LEES SUMMIT    CLEAR     79  71  76 S16       29.74S
OLATHE - IXD   CLEAR     79  68  69 S15       29.73R
OLATHE - OJC   CLEAR     77  70  79 S15G24    29.73S
LAWRENCE       CLEAR     79  69  71 SE15      29.70R

$$

MOZ001>008-011>017-020>025-030>033-038>040-044>046-053-054-200300-
...NORTHERN AND CENTRAL MISSOURI...

CITY           SKY/WX    TMP DP  RH WIND       PRES   REMARKS
ST. JOSEPH     CLEAR     80  71  74 SE12      29.69S
MOSBY          CLEAR     77  68  73 SE7       29.73R
WARRENSBURG    CLEAR     73  68  83 SE8       29.77S
WHITEMAN AFB   PTCLDY    78  74  88 S10       29.77R
CLINTON        CLEAR     75  70  83 SE6       29.79S
SEDALIA        CLEAR     77  71  82 SE7       29.81R
WARSAW         NOT AVBL
CHILLICOTHE      N/A     80  70  71 SE8       29.76S
KIRKSVILLE     CLEAR     74  66  76 SE9       29.81S

$$

MOZ041-047>049-056>058-063>065-088>090-097-200300-
...EASTERN AND SOUTHERN MISSOURI...

CITY           SKY/WX    TMP DP  RH WIND       PRES   REMARKS
ST. LOUIS INTL CLEAR     82  68  62 SE7       29.87R
SPIRIT OF STL  CLEAR     79  68  69 SE6       29.85R
COLUMBIA       PTCLDY    77  68  73 SE9       29.83R
JEFFERSON CITY CLEAR     76  67  73 E7        29.82R
ROLLA          CLEAR     76  66  71 SE8       29.87R
OSAGE BEACH    CLEAR     78  67  68 SE5       29.84R
SPRINGFIELD    CLEAR     78  65  63 S9        29.85R
BRANSON        CLEAR     77  66  69 SE7       29.88R
JOPLIN         CLOUDY    79  70  74 SE9       29.80R
WEST PLAINS    CLEAR     76  66  71 SE5       29.91R

$$

IAZ060-094-KSZ022-034>040-054-083-096-NEZ052-066-093-200300-
...KANSAS...SOUTHEAST NEBRASKA AND IOWA...

CITY           SKY/WX    TMP DP  RH WIND       PRES   REMARKS
TOPEKA         CLEAR     81  72  74 SE14      29.67R
MANHATTAN      CLEAR     84  73  69 S23G33    29.60R HX  90
EMPORIA        CLEAR     80  71  74 S23G31    29.67F
CHANUTE        CLEAR     80  70  71 SE15      29.75R
WICHITA        PTCLDY    85  68  56 S15       29.65R
OMAHA          CLOUDY    82  68  62 SE22G31   29.59R
LINCOLN        CLOUDY    83  68  60 SE24G30   29.55R
FALLS CITY     CLEAR     80  67  64 SE15      29.64R
LAMONI         CLEAR     78  66  66 SE12G21   29.73S
DES MOINES     PTCLDY    78  67  68 SE17      29.71R

$$





USA.gov is the U.S. government's official web portal to all federal, state and local government web resources and services.